Вернуться в каталог

FENGYUN 1C DEB

АктивенSSO
NORAD 30131·DEBRIS·🇨🇳 China

Запущен May 10, 1999 с Taiyuan Satellite Launch Center

Loading…

Ближайшие Пролёты (ближайшие 24 часа)

TLE

СвежийSource: Space-Track

Эпоха: Sep 14, 2026, 06:43 UTC

1 30131U 99025SL  26257.27989314  .00003094  00000-0  13325-2 0  9990
2 30131  99.0764   2.2285 0079836  91.0309 295.2932 14.23636273  6060

Отслеживайте FENGYUN 1C DEB в реальном времени с AllMySat

Download on the App Store